Wetterdaten: aktuell Donnerstag, 03.09.2026 08:47
Datum Zeit Temp. A. Feuchte A. Luftdruck Regen Wind Richtung Richtung Sonnenschein Regendauer Taupunkt Windchill
03.09.2026 08:47 17,8 °C 76 % 1020,4 hPa 0,0 mm 2,0 km/h (1 Bft) O-SO 110 ° 6 min 0 min 13,5 °C 17,8 °C
03.09.2026 08:42 17,9 °C 77 % 1020,4 hPa 0,0 mm 2,9 km/h (1 Bft) SO 140 ° 5 min 0 min 13,8 °C 17,9 °C
03.09.2026 08:37 17,9 °C 78 % 1020,4 hPa 0,0 mm 2,9 km/h (1 Bft) O-SO 115 ° 5 min 0 min 14,0 °C 17,9 °C
03.09.2026 08:32 17,7 °C 79 % 1020,4 hPa 0,0 mm 0,0 km/h (0 Bft) SO 145 ° 5 min 0 min 14,0 °C 17,7 °C
03.09.2026 08:27 18,0 °C 77 % 1020,4 hPa 0,0 mm 0,0 km/h (0 Bft) O-SO 110 ° 5 min 0 min 13,9 °C 18,0 °C
03.09.2026 08:22 17,5 °C 79 % 1020,5 hPa 0,0 mm 0,0 km/h (0 Bft) O-NO 75 ° 5 min 0 min 13,8 °C 17,5 °C
03.09.2026 08:17 17,4 °C 79 % 1019,4 hPa 0,0 mm 0,0 km/h (0 Bft) O-NO 75 ° 5 min 0 min 13,7 °C 17,4 °C
03.09.2026 08:12 17,0 °C 81 % 1019,5 hPa 0,0 mm 0,0 km/h (0 Bft) O-SO 110 ° 5 min 0 min 13,7 °C 17,0 °C
03.09.2026 08:07 16,8 °C 80 % 1019,5 hPa 0,0 mm 0,0 km/h (0 Bft) O 90 ° 5 min 0 min 13,3 °C 16,8 °C
03.09.2026 08:02 16,3 °C 83 % 1020,7 hPa 0,0 mm 0,0 km/h (0 Bft) O 80 ° 5 min 0 min 13,4 °C 16,3 °C
03.09.2026 07:57 15,9 °C 85 % 1020,8 hPa 0,0 mm 0,0 km/h (0 Bft) O 90 ° 4 min 0 min 13,4 °C 15,9 °C
03.09.2026 07:52 15,2 °C 87 % 1020,9 hPa 0,0 mm 0,0 km/h (0 Bft) O 85 ° 4 min 0 min 13,0 °C 15,2 °C
03.09.2026 07:47 14,7 °C 87 % 1021,0 hPa 0,0 mm 0,0 km/h (0 Bft) O 90 ° 0 min 0 min 12,6 °C 14,7 °C
03.09.2026 07:42 14,8 °C 87 % 1021,0 hPa 0,0 mm 0,0 km/h (0 Bft) O 95 ° 0 min 0 min 12,7 °C 14,8 °C
03.09.2026 07:37 15,0 °C 86 % 1020,9 hPa 0,0 mm 0,0 km/h (0 Bft) SO 140 ° 0 min 0 min 12,7 °C 15,0 °C
03.09.2026 07:32 15,0 °C 86 % 1020,9 hPa 0,0 mm 0,0 km/h (0 Bft) O-SO 110 ° 0 min 0 min 12,7 °C 15,0 °C
03.09.2026 07:27 15,2 °C 85 % 1020,9 hPa 0,0 mm 0,0 km/h (0 Bft) O 90 ° 0 min 0 min 12,7 °C 15,2 °C
03.09.2026 07:22 15,2 °C 85 % 1020,9 hPa 0,0 mm 0,0 km/h (0 Bft) SO 145 ° 0 min 0 min 12,7 °C 15,2 °C
03.09.2026 07:17 15,4 °C 85 % 1020,9 hPa 0,0 mm 0,0 km/h (0 Bft) S-SO 150 ° 0 min 0 min 12,9 °C 15,4 °C
03.09.2026 07:12 15,6 °C 86 % 1020,8 hPa 0,0 mm 0,0 km/h (0 Bft) O 90 ° 0 min 0 min 13,3 °C 15,6 °C
03.09.2026 07:07 15,3 °C 87 % 1020,9 hPa 0,0 mm 0,0 km/h (0 Bft) S-SO 160 ° 3 min 0 min 13,1 °C 15,3 °C
03.09.2026 07:02 14,8 °C 87 % 1019,9 hPa 0,0 mm 0,0 km/h (0 Bft) O 85 ° 0 min 0 min 12,7 °C 14,8 °C
03.09.2026 06:57 14,6 °C 88 % 1020,0 hPa 0,0 mm 0,0 km/h (0 Bft) W 270 ° 0 min 0 min 12,6 °C 14,6 °C
03.09.2026 06:52 14,4 °C 88 % 1020,0 hPa 0,0 mm 0,0 km/h (0 Bft) W-NW 285 ° 0 min 0 min 12,4 °C 14,4 °C
03.09.2026 06:47 14,4 °C 88 % 1020,0 hPa 0,0 mm 0,0 km/h (0 Bft) O-NO 75 ° 0 min 0 min 12,4 °C 14,4 °C
03.09.2026 06:42 14,4 °C 88 % 1020,0 hPa 0,0 mm 0,0 km/h (0 Bft) W 275 ° 0 min 0 min 12,4 °C 14,4 °C
03.09.2026 06:37 14,5 °C 88 % 1020,0 hPa 0,0 mm 0,0 km/h (0 Bft) W-NW 290 ° 0 min 0 min 12,5 °C 14,5 °C
03.09.2026 06:32 14,3 °C 88 % 1020,0 hPa 0,0 mm 0,0 km/h (0 Bft) NW 320 ° 0 min 0 min 12,3 °C 14,3 °C
03.09.2026 06:27 14,4 °C 88 % 1020,0 hPa 0,0 mm 0,0 km/h (0 Bft) W-NW 290 ° 0 min 0 min 12,4 °C 14,4 °C
03.09.2026 06:22 14,5 °C 87 % 1020,0 hPa 0,0 mm 0,0 km/h (0 Bft) W 280 ° 0 min 0 min 12,4 °C 14,5 °C
03.09.2026 06:17 14,6 °C 87 % 1020,0 hPa 0,0 mm 0,0 km/h (0 Bft) W 270 ° 0 min 0 min 12,5 °C 14,6 °C
03.09.2026 06:12 14,6 °C 87 % 1020,0 hPa 0,0 mm 0,0 km/h (0 Bft) NW 315 ° 0 min 0 min 12,5 °C 14,6 °C
03.09.2026 06:07 14,6 °C 87 % 1020,0 hPa 0,0 mm 0,0 km/h (0 Bft) W-NW 300 ° 0 min 0 min 12,5 °C 14,6 °C
03.09.2026 06:02 14,6 °C 86 % 1020,0 hPa 0,0 mm 0,0 km/h (0 Bft) W-NW 290 ° 0 min 0 min 12,3 °C 14,6 °C
03.09.2026 05:57 14,6 °C 86 % 1020,0 hPa 0,0 mm 0,0 km/h (0 Bft) W-NW 295 ° 0 min 0 min 12,3 °C 14,6 °C
03.09.2026 05:52 14,6 °C 86 % 1020,0 hPa 0,0 mm 0,0 km/h (0 Bft) NW 310 ° 0 min 0 min 12,3 °C 14,6 °C
03.09.2026 05:47 14,6 °C 87 % 1020,0 hPa 0,0 mm 0,0 km/h (0 Bft) NW 305 ° 0 min 0 min 12,5 °C 14,6 °C
03.09.2026 05:42 14,6 °C 87 % 1020,0 hPa 0,0 mm 0,0 km/h (0 Bft) W 280 ° 0 min 0 min 12,5 °C 14,6 °C
03.09.2026 05:37 14,6 °C 87 % 1020,0 hPa 0,0 mm 0,0 km/h (0 Bft) NW 310 ° 0 min 0 min 12,5 °C 14,6 °C
03.09.2026 05:32 14,6 °C 86 % 1021,0 hPa 0,0 mm 0,0 km/h (0 Bft) NW 310 ° 0 min 0 min 12,3 °C 14,6 °C
03.09.2026 05:27 14,7 °C 86 % 1021,0 hPa 0,0 mm 0,0 km/h (0 Bft) NW 310 ° 0 min 0 min 12,4 °C 14,7 °C
03.09.2026 05:22 14,8 °C 86 % 1021,0 hPa 0,0 mm 0,0 km/h (0 Bft) W 265 ° 0 min 0 min 12,5 °C 14,8 °C
03.09.2026 05:17 15,0 °C 85 % 1019,9 hPa 0,0 mm 0,0 km/h (0 Bft) S 190 ° 0 min 0 min 12,5 °C 15,0 °C
03.09.2026 05:12 15,1 °C 84 % 1019,9 hPa 0,0 mm 0,0 km/h (0 Bft) S-SW 205 ° 0 min 0 min 12,4 °C 15,1 °C
03.09.2026 05:07 15,2 °C 84 % 1019,8 hPa 0,0 mm 0,0 km/h (0 Bft) S 190 ° 0 min 0 min 12,5 °C 15,2 °C
03.09.2026 05:02 15,2 °C 84 % 1019,8 hPa 0,0 mm 0,0 km/h (0 Bft) SW 215 ° 0 min 0 min 12,5 °C 15,2 °C
03.09.2026 04:57 15,4 °C 84 % 1019,8 hPa 0,0 mm 0,0 km/h (0 Bft) NW 310 ° 0 min 0 min 12,7 °C 15,4 °C
03.09.2026 04:52 15,4 °C 84 % 1019,8 hPa 0,0 mm 0,0 km/h (0 Bft) SW 235 ° 0 min 0 min 12,7 °C 15,4 °C
03.09.2026 04:47 15,3 °C 84 % 1019,8 hPa 0,0 mm 0,0 km/h (0 Bft) N-NW 330 ° 0 min 0 min 12,6 °C 15,3 °C
_ Min-Zeit 06:32 16:47 16:47 - 09:02 - - - - 17:07 06:32
Minimum _ 14,3 °C 43 % 1016,8 hPa - 0,0 km/h (0 Bft) - - - - 11,6 °C 14,3 °C
_ Max-Zeit 16:47 06:27 05:32 09:02 14:01 - - 09:37 09:02 10:27 16:47
Maximum _ 26,2 °C 88 % 1021,0 hPa 0,0 mm 27,3 km/h
S-SW (5 Bft)
- - 7 min 0 min 14,5 °C 26,2 °C
Durchschnitt _ 19,4 °C 68 % 1019,1 hPa #0,0 mm 3,0 km/h (1 Bft) NW - #1:02 h #0 min. 12,9 °C 19,4 °C